Regional Weather Roundup
Issued by NWS Huntsville, AL

Home | Current Version | Previous Version | Text Only | Print | Product List | Glossary On
Versions: 1 2 3 4 5 6 7 8 9 10 11 12 13 14 15 16 17 18 19 20 21 22 23 24 25 26 27 28
000
ASUS44 KHUN 220910
RWRHUN

WEATHER ROUNDUP FOR THE TENNESSEE VALLEY
NATIONAL WEATHER SERVICE HUNTSVILLE AL
400 AM CDT SUN APR 22 2018

ALZ001>004-221000-
NORTHWEST ALABAMA

CITY           SKY/WX    TMP DP  RH WIND       PRES   REMARKS
SHOALS AIRPORT FAIR      63  45  51 E8        30.11S
$$

ALZ005>007-016-221000-
NORTH CENTRAL ALABAMA

CITY           SKY/WX    TMP DP  RH WIND       PRES   REMARKS
DECATUR AP     MOCLDY    64  47  53 SE10      30.12F
HUNTSVILLE AP  MOCLDY    64  46  52 SE13      30.12F
MERIDIANVILLE  MOCLDY    64  46  50 SE9G18    30.13F
REDSTONE ARSN  CLOUDY    63  44  50 SE10      30.12F
VINEMONT AP    FAIR      61  48  62 SE5       30.15F
$$

ALZ008>010-221000-
NORTHEAST ALABAMA

CITY           SKY/WX    TMP DP  RH WIND       PRES   REMARKS
ALBERTVILLE    FAIR      61  52  72 SE8       30.15R
FORT PAYNE     MOCLDY    61  41  48 E6        30.18R
SCOTTSBORO AP  MOCLDY    64  50  59 SE7       30.17S
$$

TNZ076-096-097-221000-
SOUTHEASTERN MIDDLE TENNESSEE

CITY           SKY/WX    TMP DP  RH WIND       PRES   REMARKS
TULLAHOMA      CLOUDY    63  41  45 SE7       30.16R
WINCHESTER     CLOUDY    63  43  48 E8        30.16S
$$

...SURROUNDING SITES...

CITY           SKY/WX    TMP DP  RH WIND       PRES   REMARKS
ATLANTA        CLOUDY    61  54  77 SE7       30.21F
ANNISTON       CLOUDY    62  54  74 E6        30.16S
BIRMINGHAM     CLOUDY    64  55  72 E13G21    30.14S
CHATTANOOGA    CLOUDY    58  47  66 N3        30.21R
CORINTH        MOCLDY    64  48  55 SE7       30.07R
DALTON         CLOUDY    59  46  63 SE6       30.22S
GADSDEN        CLOUDY    63  54  72 E8        30.17S
GOLDEN TRNGL   CLOUDY    65  57  75 E17G24    30.06R
HALEYVILLE     FAIR      61  51  70 SE8       30.12F
JACKSON TN     CLOUDY    58  54  86 CALM      30.08S
MEMPHIS        LGT RAIN  61  58  90 E9        30.02F
NASHVILLE      CLOUDY    59  43  55 SE7       30.15S
ROME           CLOUDY    62  49  62 E3        30.20R
SAVANNAH       CLOUDY    64  48  55 VRB6      30.09R
SELMER         CLOUDY    64  48  55 SE5G12    30.08R
TUPELO         MOCLDY    66  50  56 E12       30.07R
TUSCALOOSA     FAIR      66  59  78 E8G18     30.07F
$$

...GULF COAST WEATHER...

CITY           SKY/WX    TMP DP  RH WIND       PRES   REMARKS
GULFPORT       CLOUDY    70  67  90 E12       29.98F
PASCAGOULA     FAIR      64  62  93 E5        30.01F FOG
MOBILE         FAIR      67  64  90 E12       30.03F
GULF SHORES    CLOUDY    68  66  93 E7        30.04R
PENSACOLA      CLOUDY    70  64  81 E13       30.03
DESTIN         CLOUDY    71  63  75 CALM      30.05R
PANAMA CITY    FAIR      70  65  83 E12       30.05R
APPALACHICOLA  CLOUDY    71  69  93 SE14G26   30.05S
$$





USA.gov is the U.S. government's official web portal to all federal, state and local government web resources and services.